Location: Miss�
(46.9484°N, 0.1922°W)
Time: 16:57:54
(UTC+00:00)

Cosmos 2219 Rocket - Pass Details

Date: 02 March 2021
Orbit: 826 x 848 km, 71.0° (Epoch: 19 April)

Event Time Altitude Azimuth Distance (km) Brightness Sun altitude
Rises 21:23:03 0° 232° (SW) 3,358 5.5 -36.0°
Reaches altitude 10° 21:25:40 10° 240° (WSW) 2,430 4.8 -36.3°
Enters shadow 21:27:32 20° 252° (WSW) 1,834 4.2 -36.6°
Exits shadow 21:37:13 - 19° (NNE) 2,889 5.2 -37.9°
Sets 21:38:37 0° 23° (NNE) 3,395 5.5 -38.1°
